Flag for U.S.A. Weather past 2 weeks in Cambridge, Massachusetts, U.S.A.

Now
51 °F

Mostly cloudy.


Feels Like: 48 °F
Forecast: 43 / 59 °F
Wind: 8 mph from East

Location: Logan International Airport

Current Time: Jun 3, 2015 at 9:54:40 AM

Latest Report: Jun 3, 2015 at 8:54 AM


Visibility: 10 mi

Pressure: 30.24 "Hg

Humidity: 86%

Dew point: 47 °F

Location of CambridgeLocation

Historic Weather in Cambridge — Graph

°F

Cambridge temperature yesterday

Maximum temperature yesterday: 49 °F (at 2:54 PM)
Minimum temperature yesterday: 46 °F (at 2:54 AM)
Average temperature yesterday: 47 °F

Past Weeks' High & Low Weather Summary

 TemperatureHumidityPressure
High87 °F (May 30, 2:54 PM)100% (May 29, 6:54 PM)30.32 "Hg (May 29, 6:54 PM)
Low44 °F (May 23, 5:54 AM)16% (May 22, 3:54 PM)29.70 "Hg (May 20, 1:54 AM)
Average63 °F65%30.10 "Hg
* Reported May 19 8:54 AM — Jun 3 8:54 AM, Cambridge, Weather by CustomWeather, © 2015

Note: Actual official high and low records may vary slightly from our data, if they occured in-between our weather recording intervals... More about our weather records

Advertising

Cambridge weather history for previous 24 hours

 ConditionsComfort  
Time TempWeatherWind HumidityBarometerVisibility
8:54 AM
Wed, Jun 3
51 °FMostly cloudy.8 mph86%30.24 "Hg10 mi
7:54 AM51 °FBroken clouds.3 mph83%30.22 "Hg10 mi
6:54 AM50 °FMostly cloudy.5 mph86%30.22 "Hg10 mi
5:54 AM48 °FLow clouds.No wind89%30.22 "Hg10 mi
5:03 AM46 °FMostly cloudy.6 mph93%30.22 "Hg10 mi
4:54 AM47 °FMostly cloudy.5 mph93%30.21 "Hg10 mi
3:54 AM47 °FLow clouds.3 mph90%30.20 "Hg10 mi
2:54 AM47 °FLow clouds.3 mph90%30.19 "Hg10 mi
1:54 AM47 °FMostly cloudy.5 mph90%30.19 "Hg10 mi
12:54 AM47 °FOvercast.3 mph93%30.21 "Hg10 mi
11:54 PM
Tue, Jun 2
47 °FMostly cloudy.3 mph93%30.20 "Hg10 mi
10:54 PM47 °FMostly cloudy.7 mph93%30.20 "Hg10 mi
10:01 PM46 °FMostly cloudy.6 mph93%30.20 "Hg10 mi
8:54 PM47 °FMostly cloudy.5 mph93%30.19 "Hg10 mi
7:54 PM48 °FMostly cloudy.9 mph86%30.18 "Hg10 mi
6:54 PM48 °FMostly cloudy.12 mph86%30.19 "Hg10 mi
5:54 PM48 °FMostly cloudy.10 mph86%30.17 "Hg10 mi
4:54 PM48 °FMostly cloudy.15 mph86%30.16 "Hg10 mi
3:54 PM49 °FMostly cloudy.12 mph86%30.17 "Hg10 mi
2:54 PM49 °FMostly cloudy.14 mph90%30.18 "Hg8 mi
1:54 PM48 °FLight rain. Mostly cloudy.14 mph93%30.19 "Hg7 mi
12:54 PM48 °FLight rain. Fog.15 mph93%30.19 "Hg6 mi
11:54 AM48 °FLight rain. Low clouds.13 mph93%30.19 "Hg8 mi
10:54 AM47 °FLow clouds.16 mph97%30.19 "Hg8 mi
9:54 AM48 °FLight rain. Fog.14 mph93%30.18 "Hg3 mi
Weather by CustomWeather, © 2015

See weather overviewHow to use our weather pages